Location: Shenandoah County Park
(38.9356°N, 78.4524°W)
Time: 01:43:08
(UTC-05:00)

Hubble Space Telescope - Visible Passes

Search period start: 13 February 2026 00:00
Search period end: 23 February 2026 00:00
Orbit: 478 x 480 km, 28.5° (Epoch: 10 February)

Date Brightness Start Highest point End Pass type
(mag) Time Alt. Az. Time Alt. Az. Time Alt. Az.
18 Feb 3.4 05:37:20 10° SSE 05:37:26 10° SSE 05:37:31 10° SSE visible
19 Feb 3.3 05:06:57 10° SSE 05:07:08 10° SSE 05:07:18 10° SSE visible
20 Feb 2.8 06:13:29 10° SW 06:15:55 16° S 06:18:21 10° SE visible
21 Feb 2.8 05:43:30 11° SSW 05:45:35 16° S 05:48:00 10° SE visible
22 Feb 2.6 05:14:51 16° S 05:15:14 16° S 05:17:39 10° SE visible
